This demonstration page uses our WeatherBlox Daily Observations layout. Learn more.

Left ArrowRight Arrow

Hourly Observations for July 30, 2015

Temp ( °F °C ) Dew Point ( °F °C ) Humidity (%) Winds ( mph kmh ) Pressure ( in mb ) Visibility ( mi km ) Precip ( " mm )
12:15 am 00:15 Partly Cloudy 79 26 75 24 89 89 SSW 13 20 29.97 1015 10 16.0934 0 0
12:35 am 00:35 Clear 79 26 75 24 89 89 SSW 13 20 29.97 1015 10 16.0934 0 0
12:55 am 00:55 Partly Cloudy 77 25 73 23 89 89 SSW 13 20 29.97 1015 10 16.0934 0 0
1:15 am 01:15 Partly Cloudy 77 25 73 23 89 89 SSW 12 19 29.97 1015 10 16.0934 0 0
1:35 am 01:35 Partly Cloudy 77 25 73 23 89 89 SSW 12 19 29.97 1015 10 16.0934 0 0
1:55 am 01:55 Clear 77 25 73 23 89 89 SSW 10 17 29.97 1015 10 16.0934 0 0
2:15 am 02:15 Partly Cloudy 77 25 73 23 89 89 SSW 12 19 29.94 1014 10 16.0934 0 0
2:35 am 02:35 Partly Cloudy 77 25 73 23 89 89 SSW 13 20 29.94 1014 10 16.0934 0 0
2:55 am 02:55 Partly Cloudy 77 25 75 24 94 94 SSW 12 19 29.94 1014 10 16.0934 0 0
3:15 am 03:15 Clear 77 25 75 24 94 94 SSW 12 19 29.94 1014 10 16.0934 0 0
3:35 am 03:35 Clear 77 25 75 24 94 94 SSW 12 19 29.94 1014 10 16.0934 0 0
3:55 am 03:55 Clear 77 25 75 24 94 94 SSW 13 20 29.91 1013 10 16.0934 0 0
4:15 am 04:15 Clear 77 25 75 24 94 94 SSW 13 20 29.91 1013 10 16.0934 0 0
4:35 am 04:35 Clear 77 25 75 24 94 94 S 13 20 29.91 1013 10 16.0934 0 0
4:55 am 04:55 Clear 75 24 75 24 100 100 SSW 7 11 29.91 1013 10 16.0934 0 0
5:15 am 05:15 Clear 75 24 75 24 100 100 SSW 8 13 29.91 1013 10 16.0934 0 0
5:35 am 05:35 Clear 75 24 75 24 100 100 SSW 8 13 29.94 1014 10 16.0934 0 0
5:55 am 05:55 Partly Cloudy 75 24 75 24 100 100 S 10 17 29.94 1014 10 16.0934 0 0
6:15 am 06:15 Partly Cloudy 75 24 75 24 100 100 SW 6 9 29.94 1014 10 16.0934 0 0
6:35 am 06:35 Partly Cloudy 75 24 75 24 100 100 SSW 10 17 29.94 1014 10 16.0934 0 0
6:55 am 06:55 Mostly Cloudy 75 24 75 24 100 100 SSW 10 17 29.94 1014 7 11.26538 0 0
7:15 am 07:15 Cloudy 75 24 75 24 100 100 SSW 9 15 29.94 1014 10 16.0934 0 0
7:35 am 07:35 Mostly Cloudy 77 25 77 25 100 100 SSW 9 15 29.94 1014 10 16.0934 0 0
7:55 am 07:55 Mostly Cloudy 77 25 77 25 100 100 S 10 17 29.94 1014 10 16.0934 0 0
8:15 am 08:15 Partly Cloudy 79 26 77 25 94 94 SSW 9 15 29.94 1014 10 16.0934 0 0
8:35 am 08:35 Sunny 79 26 77 25 94 94 SSW 12 19 29.94 1014 10 16.0934 0 0
8:55 am 08:55 Sunny 81 27 77 25 89 89 SW 6 9 29.94 1014 10 16.0934 0 0
9:15 am 09:15 Partly Cloudy 81 27 77 25 89 89 SSW 10 17 29.94 1014 10 16.0934 0 0
9:35 am 09:35 Partly Cloudy 82 28 79 26 89 89 SW 7 11 29.94 1014 10 16.0934 0 0
9:55 am 09:55 Sunny 84 29 79 26 84 84 Calm 29.94 1014 10 16.0934 0 0
10:15 am 10:15 Sunny 86 30 79 26 79 79 SSW 10 17 29.91 1013 10 16.0934 0 0
10:35 am 10:35 Sunny 88 31 79 26 75 75 SSE 6 9 29.91 1013 10 16.0934 0 0
10:55 am 10:55 Sunny 88 31 79 26 75 75 SSW 12 19 29.91 1013 10 16.0934 0 0
11:15 am 11:15 Sunny 88 31 79 26 75 75 S 7 11 29.91 1013 10 16.0934 0 0
11:35 am 11:35 Mostly Cloudy 88 31 79 26 75 75 SSW 3 6 29.91 1013 10 16.0934 0 0
11:55 am 11:55 Mostly Cloudy 90 32 79 26 71 71 SSW 8 13 29.91 1013 10 16.0934 0 0
12:15 pm 12:15 Mostly Cloudy 90 32 79 26 71 71 W 6 9 29.88 1012 10 16.0934 0 0
12:35 pm 12:35 Mostly Cloudy 90 32 79 26 71 71 WNW 17 28 29.88 1012 10 16.0934 0 0
12:55 pm 12:55 Mostly Cloudy with Thunderstorms 79 26 77 25 94 94 NW 15 24 29.94 1014 7 11.26538 0 0
1:15 pm 13:15 Mostly Cloudy 81 27 79 26 94 94 NW 14 22 29.91 1013 7 11.26538 0 0
1:35 pm 13:35 Cloudy with Light Thunderstorms 79 26 77 25 94 94 NW 5 7 29.91 1013 10 16.0934 0 0
1:55 pm 13:55 Cloudy with Nearby Thunderstorms 81 27 77 25 89 89 W 5 7 29.91 1013 10 16.0934 0 0
2:15 pm 14:15 Cloudy 81 27 77 25 89 89 SW 7 11 29.91 1013 10 16.0934 0 0
2:35 pm 14:35 Cloudy 81 27 77 25 89 89 WSW 3 6 29.91 1013 10 16.0934 0 0
2:55 pm 14:55 Partly Cloudy 84 29 77 25 79 79 SW 6 9 29.88 1012 10 16.0934 0 0
3:15 pm 15:15 Partly Cloudy 86 30 77 25 75 75 SSW 12 19 29.85 1011 10 16.0934 0 0
3:35 pm 15:35 Partly Cloudy 86 30 77 25 75 75 SSW 7 11 29.85 1011 10 16.0934 0 0
3:55 pm 15:55 Sunny with Nearby Thunderstorms 88 31 77 25 70 70 WSW 5 7 29.85 1011 10 16.0934 0 0
4:15 pm 16:15 Sunny 88 31 77 25 70 70 Calm 29.85 1011 10 16.0934 0 0
4:35 pm 16:35 Partly Cloudy 90 32 77 25 67 67 Calm 29.85 1011 10 16.0934 0 0
4:55 pm 16:55 Partly Cloudy 90 32 77 25 67 67 Calm 29.85 1011 10 16.0934 0 0
5:15 pm 17:15 Mostly Cloudy 88 31 75 24 66 66 Calm 29.85 1011 10 16.0934 0 0
5:35 pm 17:35 Mostly Cloudy 88 31 77 25 70 70 Calm 29.85 1011 10 16.0934 0 0
5:55 pm 17:55 Mostly Cloudy 88 31 77 25 70 70 Calm 29.85 1011 10 16.0934 0 0
6:15 pm 18:15 Partly Cloudy 88 31 77 25 70 70 SSW 3 6 29.85 1011 10 16.0934 0 0
6:35 pm 18:35 Sunny 88 31 79 26 75 75 SSW 3 6 29.85 1011 10 16.0934 0 0
6:55 pm 18:55 Sunny 88 31 79 26 75 75 SW 6 9 29.85 1011 10 16.0934 0 0
7:15 pm 19:15 Partly Cloudy 86 30 79 26 79 79 W 5 7 29.85 1011 10 16.0934 0 0
7:35 pm 19:35 Sunny 86 30 68 20 55 55 WNW 9 15 29.85 1011 10 16.0934 0 0
7:55 pm 19:55 Sunny 82 28 68 20 62 62 WNW 9 15 29.91 1013 10 16.0934 0 0
8:15 pm 20:15 Sunny 81 27 70 21 70 70 Calm 29.91 1013 10 16.0934 0 0
8:35 pm 20:35 Clear 79 26 68 20 70 70 W 5 7 29.91 1013 10 16.0934 0 0
8:55 pm 20:55 Clear 81 27 68 20 66 66 WNW 8 13 29.91 1013 10 16.0934 0 0
9:15 pm 21:15 Clear 77 25 68 20 74 74 W 3 6 29.91 1013 10 16.0934 0 0
9:35 pm 21:35 Clear 77 25 68 20 74 74 WNW 8 13 29.91 1013 10 16.0934 0 0
9:55 pm 21:55 Clear 77 25 68 20 74 74 Calm 29.94 1014 10 16.0934 0 0
10:15 pm 22:15 Clear 77 25 68 20 74 74 SW 10 17 29.94 1014 10 16.0934 0 0
10:35 pm 22:35 Clear 72 22 68 20 88 88 W 8 13 29.94 1014 10 16.0934 0 0
10:55 pm 22:55 Clear 73 23 68 20 83 83 Calm 29.94 1014 10 16.0934 0 0
11:15 pm 23:15 Clear 77 25 66 19 69 69 Calm 29.94 1014 10 16.0934 0 0
11:35 pm 23:35 Clear 73 23 66 19 78 78 W 7 11 29.94 1014 10 16.0934 0 0
11:55 pm 23:55 Clear 73 23 64 18 74 74 WNW 10 17 29.94 1014 10 16.0934 0 0

Powered by AerisWeather